Regional Weather Roundup
Issued by NWS

Home | Current Version | Previous Version | Text Only | Print | Product List | Glossary Off
Versions: 1 2 3 4 5 6 7 8 9 10 11 12 13 14 15 16 17 18 19 20 21 22 23 24 25 26 27 28 29 30 31 32 33 34 35 36 37 38 39 40 41 42 43 44 45 46 47 48 49 50

099
ASUS43 KMPX 162301
RWRMN
WEATHER ROUNDUP FOR MINNESOTA
NATIONAL WEATHER SERVICE TWIN CITIES/CHANHASSEN MN
600 PM CDT MON OCT 16 2017


NOTE: "FAIR" INDICATES FEW OR NO CLOUDS BELOW 12,000 FEET WITH NO
SIGNIFICANT WEATHER AND/OR OBSTRUCTIONS TO VISIBILITY. N/A MEANS
CURRENT SKY AND/OR WEATHER CONDITIONS ARE NOT AVAILABLE.

MNZ060>063-068>070-170000-
   Twin Cities Metro

CITY           SKY/WX    TMP DP  RH WIND       PRES   REMARKS
TWIN CITIES    PTCLDY    65  37  35 S8        30.01F
ST PAUL        CLEAR     60  39  45 S7        30.01F
CRYSTAL        CLEAR     63  35  35 S9        29.98F
BLAINE         PTCLDY    64  37  36 S12       29.99F
LAKEVILLE      CLEAR     63  37  39 S5        30.02F
EDEN PRAIRIE   CLEAR     63  38  39 S9        29.99F
SOUTH ST PAUL  CLEAR     63  36  36 S8        30.01F
LAKE ELMO      FAIR      61  39  44 S7        30.02F
$$
MNZ001>005-007-008-013>017-022>024-027-028-170000-
   Northwest Minnesota

CITY           SKY/WX    TMP DP  RH WIND       PRES   REMARKS
BEMIDJI        CLEAR     62  38  41 SW9       29.85F
HALLOCK        CLEAR     66  36  32 W9        29.80R
ROSEAU           N/A     64  39  39 W7        29.79S
WARROAD        CLEAR     63  41  45 W9        29.79R
CROOKSTON      CLEAR     64  36  34 NW9       29.84R
FOSSTON        CLEAR     64  36  34 SW12      29.85S
DETROIT LAKES  CLEAR     64  36  34 W7        29.90R
MOORHEAD       CLEAR     66  41  39 SW9       29.88R
PARK RAPIDS    CLEAR     63  38  39 SW12G22   29.88S
MAHNOMEN       FAIR      65  38  37 SW9       29.86S
$$
MNZ006-009>011-018-025>026-170000-
   North Central Minnesota

CITY           SKY/WX    TMP DP  RH WIND       PRES   REMARKS
BAUDETTE       CLEAR     62  37  39 SW13      29.78S
FLAG ISLAND    CLOUDY    61  36  39 W15       29.75R
INTL FALLS     CLOUDY    58  35  42 SW9       29.79S
WASKISH        CLOUDY    61  41  48 SW13      29.81F
BIG FORK       CLEAR     59  36  41 SW9G20    29.85S
LONGVILLE      CLEAR     61  36  39 S8        29.89S
GRAND RAPIDS   CLEAR     60  35  39 SW9       29.90S
CRANE LAKE     CLEAR     57  34  41 S10       29.84S
ORR            CLEAR     57  30  35 S7G18     29.82S
COOK           CLEAR     57  34  41 S7        29.86S
WALKER         FAIR      62  37  40 SW13G21   29.88R
$$
MNZ012-019>021-037-170000-
   Northeast Minnesota

CITY           SKY/WX    TMP DP  RH WIND       PRES   REMARKS
DULUTH         CLEAR     56  35  45 SW14G22   29.93F
ELY            CLEAR     55  30  38 SW8       29.86F
HIBBING        CLEAR     56  33  42 VRB7G17   29.88F
EVELETH        CLEAR     57  25  28 SW13      29.89F
DULUTH HARBOR  CLOUDY    61  37  41 SW15      29.94S
TWO HARBORS    CLEAR     61  41  48 S9        29.90F
GRAND MARAIS     N/A     52  46  80 W5        29.92F
G MARAIS ARPRT CLEAR     48  34  57 S12G17    29.92F
$$
MNZ029>031-032-039>041-046>048-054>057-064-170000-
   West Central Minnesota

CITY           SKY/WX    TMP DP  RH WIND       PRES   REMARKS
FERGUS FALLS   CLEAR     66  39  37 SW9       29.90R
WHEATON        CLEAR     66  37  34 SW10      29.93S
MORRIS         CLEAR     66  39  37 SW10      29.93S
ALEXANDRIA     CLEAR     64  38  38 SW12      29.94F
ELBOW LAKE     FAIR      63  40  42 W8        29.92S
WADENA         CLEAR     63  39  42 SW8       29.90S
GLENWOOD       CLEAR     63  37  39 SW8       29.95S
APPLETON       CLEAR     66  36  32 S6        29.94F
BENSON         CLEAR     66  37  34 W9        29.96S
ORTONVILLE     CLEAR     64  39  39 NW5       29.94F
MADISON        CLEAR     68  39  34 SW6       29.95S
WILLMAR        FAIR      66  37  34 SW6       29.97F
$$
MNZ033>034-036-042>043-049>051-058-059-170000-
   Central Minnesota

CITY           SKY/WX    TMP DP  RH WIND       PRES   REMARKS
ST CLOUD       CLEAR     63  38  39 S9        29.97S
SAUK CENTRE    FAIR      62  40  45 S8        29.95S
PAYNESVILLE    CLEAR     64  38  38 S8        29.96F
AITKIN         CLOUDY    57  36  44 S9        29.91S
PINE RIVER     CLEAR     59  37  44 S7        29.93S
BRAINERD       CLEAR     60  37  42 S12       29.92F
STAPLES        CLEAR     61  36  39 S9        29.91F
LONG PRAIRIE   FAIR      61  37  41 S8        29.94F
LITTLE FALLS   CLEAR     61  28  29 S6        29.95S
LITCHFIELD     CLEAR     64  37  36 CALM      29.98F
BUFFALO        CLEAR     64  35  33 S7        29.99F
MAPLE LAKE     CLEAR     65  39  38 S3        29.99F
HUTCHINSON     CLEAR     65  38  36 S5        30.00S
$$
MNZ037-044-045-052-053-170000-
   East Central Minnesota

CITY           SKY/WX    TMP DP  RH WIND       PRES   REMARKS
PRINCETON      CLEAR     64  37  36 S7        29.97F
MORA           CLEAR     57  36  44 S9        29.98F
CAMBRIDGE      CLEAR     63  43  48 S7        29.98F
RUSH CITY      PTCLDY    60  37  42 S7        29.99F
MOOSE LAKE     CLEAR     59  34  38 S7        29.93F
HINCKLEY       FAIR      59  37  44 S7        29.96F
CLOQUET        CLEAR     57  30  35 S13       29.94S
MCGREGOR       CLEAR     59  37  44 S10G17    29.93S
$$
MNZ071>073-080-081-089-090-097-098-170000-
   Southwest Minnesota

CITY           SKY/WX    TMP DP  RH WIND       PRES   REMARKS
MONTEVIDEO     CLEAR     66  36  32 SW5       29.96F
GRANITE FALLS  CLEAR     66  40  38 S7        29.98F
CANBY          CLOUDY    69  38  31 SW7       29.97F
MARSHALL       CLEAR     69  38  32 SW12      29.98S
REDWOOD FALLS  CLEAR     67  36  31 SW10      29.99S
OLIVIA         CLEAR     68  37  32 S9        29.97F
PIPESTONE      CLEAR     66  37  34 SW6       30.00F
WORTHINGTON    CLEAR     67  38  34 S9        30.03F
JACKSON        CLEAR     64  34  32 S13       30.04F
TRACY          CLEAR     68  39  33 SW9       30.00S
SLAYTON        CLEAR     68  37  32 S12       30.02S
$$
MNZ065>067-074>077-082>085-091>093-170000-
   South Central Minnesota

CITY           SKY/WX    TMP DP  RH WIND       PRES   REMARKS
MANKATO        CLEAR     64  35  34 S7        30.03F
NEW ULM        CLEAR     64  36  34 S7        30.01S
ST JAMES       CLEAR     66  34  30 S8        30.03S
FAIRMONT       CLEAR     66  37  34 S13       30.04S
GLENCOE        CLEAR     65  36  33 S8        29.99F
FARIBAULT      CLEAR     64  36  34 S8        30.04F
OWATONNA       CLEAR     64  37  36 S8        30.05F
WASECA         CLEAR     63  34  34 S7        30.06F
ALBERT LEA     CLEAR     68  36  30 S9        30.06F
$$
MNZ078>079-086>088-094>096-170000-
   Southeast Minnesota

CITY           SKY/WX    TMP DP  RH WIND       PRES   REMARKS
ROCHESTER      CLEAR     60  38  43 SW13      30.09F
RED WING       CLEAR     64  30  27 S7        30.04S
STANTON        CLEAR     65  35  32 S6        30.02F
DODGE CENTER   CLEAR     63  34  34 S8        30.07F
WINONA         CLEAR     61  34  36 CALM      30.09F
AUSTIN         CLEAR     63  36  36 S9        30.08F
PRESTON        CLEAR     61  33  35 SW6       30.11F
$$
ABBREVIATIONS USED IN REMARKS
   TC - TEMPERATURES IN CELSIUS
  WCI - WIND CHILL INDEX
   HX - HEAT INDEX
  VSB - VISIBILITY
$$




USA.gov is the U.S. government's official web portal to all federal, state and local government web resources and services.